Home > Weather > Jackson > Past weeks

Flag for USA Weather for the Past 2 Weeks in Jackson, Mississippi, USA

Now
59 °F

Clear.


Feels Like: 59 °F
Forecast: 52 / 76 °F
Wind: 5 mph from North

Location: Hawkins Field

Current Time: May 4, 2016 at 12:19:50 AM

Latest Report: May 3, 2016 at 10:53 PM


Visibility: 10 mi

Pressure: 29.98 "Hg

Humidity: 75%

Dew Point: 51 °F

Location of JacksonLocation

Historic Weather in Jackson — Graph

°F

Jackson Temperature Yesterday

Maximum temperature yesterday: 73 °F (at 3:53 PM)
Minimum temperature yesterday: 59 °F (at 10:53 PM)
Average temperature yesterday: 66 °F

High & Low Weather Summary for the Past Weeks

 TemperatureHumidityPressure
High87 °F (Apr 28, 3:53 PM)97% (Apr 20, 9:53 PM)30.18 "Hg (Apr 20, 9:53 PM)
Low54 °F (Apr 23, 6:53 AM)36% (Apr 23, 3:53 PM)29.67 "Hg (Apr 27, 3:53 PM)
Average70 °F75%29.93 "Hg
* Reported Apr 18 10:53 PM — May 3 10:53 PM, Jackson, Weather by CustomWeather, © 2016

Note: Actual official high and low records may vary slightly from our data, if they occured in-between our weather recording intervals... More about our weather records

Advertising

Jackson Weather History for the Previous 24 Hours

Scroll right to see more
 ConditionsComfort  
Time TempWeatherWind HumidityBarometerVisibility
10:53 PM
Tue, May 3
59 °FClear.5 mph75%29.98 "Hg10 mi
9:53 PM60 °FClear.No wind75%29.97 "Hg10 mi
8:53 PM62 °FClear.5 mph70%29.96 "Hg10 mi
7:53 PM65 °FPassing clouds.N/A63%29.95 "Hg10 mi
6:53 PM68 °FPartly sunny.8 mph55%29.93 "Hg10 mi
5:53 PM69 °FScattered clouds.8 mph55%29.93 "Hg10 mi
4:53 PM71 °FPassing clouds.10 mph53%29.93 "Hg10 mi
3:53 PM73 °FPartly sunny.14 mph50%29.92 "Hg10 mi
2:53 PM72 °FScattered clouds.10 mph52%29.93 "Hg10 mi
1:53 PM72 °FPartly sunny.8 mph53%29.95 "Hg10 mi
12:53 PM72 °FPassing clouds.7 mph55%29.96 "Hg10 mi
11:53 AM70 °FPartly sunny.8 mph59%29.99 "Hg10 mi
10:53 AM70 °FPartly sunny.3 mph64%29.99 "Hg10 mi
9:53 AM68 °FPassing clouds.7 mph65%29.99 "Hg10 mi
8:53 AM64 °FOvercast.5 mph84%29.99 "Hg10 mi
8:04 AM62 °FMore clouds than sun.6 mph90%30.00 "Hg10 mi
7:53 AM62 °FMostly cloudy.7 mph90%29.98 "Hg10 mi
6:53 AM62 °FPassing clouds.3 mph90%29.96 "Hg10 mi
5:53 AM62 °FLow clouds.5 mph93%29.95 "Hg10 mi
4:59 AM62 °FMostly cloudy.6 mph93%29.97 "Hg10 mi
3:53 AM62 °FMostly cloudy.3 mph93%29.94 "Hg9 mi
2:53 AM62 °FOvercast.3 mph93%29.94 "Hg10 mi
1:53 AM62 °FMostly cloudy.5 mph90%29.96 "Hg10 mi
12:53 AM63 °FOvercast.6 mph90%29.97 "Hg10 mi
Weather by CustomWeather, © 2016

See weather overviewHow to use our weather pages